Wind_Speed
9 7 4 6 9 11 9 4 3 4 8 9 6 5 6 6 3 3 4 4 7 8 6 8 9 6 5 5 5 8 9 8 10 12 11 11 13 15 19 19 18 17 15 13 12 11 11 10 10 9 8 7 7 8 8 9 10 11 11 11 12 13 11 12 12 12 12 12 12 12 12 13 12 12 11 12 12 12 12 11 11 10 10 9 8 8
6 6 5 10 11 8 5 4 6 8 8 7 6 5 4 4 3 2 4 2 4 7 6 8 9 7 5 4 4 9 10 6 9 12 10 11 12 15 18 20 19 18 15 12 10 9 8 8 8 7 7 7 7 8 8 9 10 10 10 11 12 11 11 12 13 13 13 13 13 12 12 12 11 11 11 12 12 11 11 11 11 12 11 11 11 10
5 4 7 9 6 6 6 5 7 8 8 7 5 5 3 3 3 3 4 4 4 5 5 6 7 5 3 3 4 7 9 6 8 10 10 13 14 15 18 19 18 17 14 11 9 8 7 7 7 6 6 6 6 7 7 8 8 8 9 10 10 10 11 12 12 12 13 12 12 11 11 10 10 11 11 11 11 10 10 10 11 12 12 12 12 11
3 2 6 4 10 10 6 5 9 8 6 5 4 5 4 2 3 3 3 4 5 5 6 7 5 3 2 2 3 4 8 9 9 9 10 12 14 15 16 16 15 15 14 12 10 9 7 6 5 5 5 6 6 6 7 7 8 8 9 9 9 10 11 12 12 12 12 10 10 10 9 9 8 9 9 8 8 10 11 11 12 12 12 12 12 11
3 2 1 6 10 11 9 7 9 8 3 2 3 4 4 4 5 5 3 3 7 6 5 6 5 2 2 1 2 2 6 10 11 11 9 10 12 13 15 16 14 14 13 12 11 9 7 6 6 5 5 5 6 7 8 8 8 9 9 10 10 11 11 11 12 12 12 10 10 10 9 9 10 10 10 10 11 12 13 14 14 13 12 11 11 11
3 2 5 7 7 10 11 6 6 7 5 1 1 1 5 8 8 8 6 4 6 3 2 3 4 1 3 1 2 0 2 6 10 12 10 11 13 15 17 18 16 14 12 11 10 9 8 7 7 6 5 5 7 8 9 9 9 9 9 10 9 9 10 11 13 14 14 14 15 15 14 15 16 17 17 16 16 15 15 15 15 15 14 13 12 11
3 4 6 7 7 8 7 5 3 3 7 2 2 4 8 10 10 8 5 4 3 3 2 3 4 2 3 2 3 2 3 4 6 9 11 13 16 18 21 20 18 16 14 12 9 9 9 8 7 6 5 5 7 8 9 9 9 9 8 8 8 9 11 14 16 16 16 17 18 19 20 20 20 19 17 15 15 15 15 15 15 15 15 15 14 13
2 6 6 5 6 6 5 3 2 3 8 2 2 9 10 10 10 6 5 4 2 3 1 3 4 2 1 3 3 3 5 3 3 6 9 13 16 20 23 22 20 18 14 11 10 10 9 8 6 4 3 4 6 7 8 10 11 10 10 10 10 11 12 14 16 17 18 18 20 22 23 22 19 17 15 13 13 14 15 15 15 15 15 15 15 15
1 4 5 5 6 4 1 2 4 6 5 1 2 10 8 8 8 4 6 4 1 3 1 4 3 3 2 4 2 2 4 4 5 6 8 13 17 20 24 23 20 17 13 9 9 10 8 6 3 1 2 3 6 8 10 12 12 12 12 12 11 11 12 14 17 19 20 20 22 23 24 22 18 15 13 13 14 15 16 15 15 15 15 15 15 15
1 2 6 7 5 2 0 1 3 5 4 4 8 10 7 7 6 4 5 3 3 4 2 5 1 2 3 3 1 1 2 5 6 6 8 15 19 20 23 23 20 16 11 9 8 8 6 3 1 1 2 4 6 8 11 12 13 13 14 14 12 11 13 15 17 19 19 19 20 23 24 22 18 15 14 14 16 16 15 15 16 16 15 14 15 15
2 2 4 5 3 5 5 8 8 8 10 11 10 9 7 6 4 4 3 3 4 3 4 5 3 4 2 4 2 3 3 5 7 5 6 14 19 19 21 21 19 15 12 10 8 8 6 3 1 1 1 4 6 8 11 11 12 14 14 14 13 13 14 15 16 16 16 17 19 21 24 23 19 16 15 16 17 16 15 16 16 16 15 14 14 14
6 5 3 3 7 10 11 10 9 10 11 9 6 5 5 4 4 4 4 3 3 2 5 3 2 5 1 4 3 4 5 5 8 7 8 13 19 20 19 20 18 14 13 12 9 8 7 3 2 3 2 4 6 8 9 9 10 10 11 12 13 13 13 13 13 13 14 15 18 20 23 24 22 19 18 18 18 17 17 18 17 18 18 16 16 15
5 4 3 2 8 9 10 8 5 5 6 6 5 5 5 3 3 3 2 2 1 3 2 1 1 2 2 5 4 5 6 6 8 11 15 19 22 21 20 21 19 16 16 14 11 9 6 3 3 3 3 5 6 6 6 6 6 6 7 8 9 10 10 10 10 11 12 14 17 19 21 22 22 21 21 20 20 19 19 19 18 19 20 20 19 18
4 5 3 4 4 3 6 7 3 0 2 5 5 4 4 3 3 0 2 1 2 3 2 1 1 1 3 2 3 5 6 9 9 12 20 24 25 24 22 22 22 19 18 16 12 9 6 4 4 4 5 5 5 5 4 4 3 2 3 4 5 7 8 8 9 9 11 13 16 18 19 19 20 20 21 20 20 19 18 18 18 18 20 20 20 20
2 2 2 2 3 4 2 3 5 4 4 4 3 5 4 3 4 3 3 2 2 2 2 3 1 1 1 2 4 4 3 6 8 10 18 23 25 24 22 23 24 21 19 17 12 9 7 6 6 6 7 6 5 5 4 3 2 1 1 2 3 5 7 7 7 8 10 13 15 18 18 18 18 18 18 18 18 18 17 17 17 17 18 19 20 21
4 3 5 2 2 6 4 2 6 7 4 1 2 4 1 3 5 2 2 4 3 1 1 1 2 2 3 4 5 2 6 9 10 12 18 22 24 23 23 25 26 21 19 17 14 11 10 9 9 8 8 7 7 7 6 4 2 1 1 2 4 5 6 7 7 8 10 12 15 16 16 16 16 16 16 17 17 17 16 16 17 18 19 19 20 20
3 2 5 3 0 3 4 5 7 7 4 1 2 2 4 3 7 5 1 1 3 3 1 1 2 4 2 2 4 5 6 6 9 13 17 21 24 24 25 27 26 22 20 18 16 14 12 12 11 10 9 9 9 8 6 4 2 2 2 4 5 6 6 7 7 7 9 12 13 14 15 15 16 16 17 18 18 17 17 17 18 18 19 19 20 20
4 0 5 1 2 1 3 6 3 3 5 4 3 5 3 3 4 5 2 3 4 1 3 1 2 3 1 1 3 3 3 1 4 9 13 18 23 25 26 27 26 24 22 19 17 16 14 14 13 11 11 11 9 7 6 4 4 3 4 5 7 7 7 7 7 7 9 11 12 13 14 15 16 16 17 18 18 18 18 18 18 18 18 19 20 20
5 2 5 2 2 2 2 6 3 3 2 4 4 3 3 3 1 2 3 1 1 1 3 3 2 2 3 3 3 3 5 4 4 5 8 14 20 24 26 27 27 26 24 21 19 18 17 16 15 13 13 12 10 8 7 6 6 6 6 7 8 8 8 8 7 7 8 10 11 12 13 15 15 16 17 17 17 17 17 18 18 18 18 19 19 20
3 4 3 5 1 2 4 4 1 3 3 2 3 2 2 2 3 2 2 3 3 2 2 2 3 3 5 5 6 9 8 7 7 5 7 15 22 25 27 28 29 28 26 23 21 20 18 17 15 14 13 12 11 10 8 8 9 8 8 9 9 9 9 8 7 6 7 9 11 12 13 14 15 16 16 16 16 16 17 17 17 18 19 20 20 20
2 4 2 5 5 3 1 1 3 4 2 1 1 1 1 1 2 2 1 2 3 4 2 0 2 5 5 4 7 10 8 8 10 8 10 17 23 25 27 28 29 29 27 24 22 20 19 17 15 13 13 13 13 12 11 10 10 10 10 11 11 10 10 8 6 6 8 10 11 12 13 15 15 16 16 15 15 15 16 16 17 19 21 21 21 20
1 3 4 1 4 2 3 5 4 5 5 4 3 3 3 3 3 3 0 1 2 3 3 3 1 6 5 3 5 7 7 10 14 14 15 20 23 25 27 28 29 28 27 25 23 20 19 17 15 14 14 15 15 15 14 12 11 11 11 12 13 12 10 8 6 6 8 10 11 12 13 14 15 16 16 14 14 15 15 16 18 19 21 22 22 21
3 4 4 1 0 2 6 5 3 4 4 5 2 2 3 3 4 5 3 3 2 2 1 3 1 5 5 3 4 6 10 15 19 19 18 21 24 26 27 28 28 28 27 26 23 21 19 17 15 15 16 17 17 16 15 14 13 12 12 13 14 13 11 9 7 7 9 10 11 11 12 14 14 16 17 15 14 14 15 16 17 19 20 22 23 23
2 4 4 1 4 4 6 6 2 2 3 3 2 2 2 0 2 5 5 3 3 2 2 3 1 5 5 4 4 7 12 15 19 20 20 21 23 25 27 27 28 28 28 27 24 22 20 18 17 17 18 19 18 17 17 16 14 13 12 14 15 14 12 10 9 9 10 11 11 10 12 14 14 16 17 17 15 15 15 16 18 19 21 23 24 24
1 2 4 3 4 5 6 7 5 4 3 1 2 3 1 1 3 3 2 3 3 3 4 4 2 6 5 5 3 5 9 11 15 19 20 20 23 25 27 27 28 29 29 28 26 23 22 20 19 19 19 19 18 17 17 17 16 14 13 14 15 14 13 12 11 11 11 11 11 10 12 14 15 15 17 17 16 16 16 16 18 19 21 22 22 22
3 2 4 5 3 1 2 2 3 2 2 0 2 4 3 3 2 1 1 4 2 3 3 4 3 5 5 4 6 5 6 7 11 15 17 19 21 24 26 26 28 29 30 29 26 24 23 22 20 20 20 19 18 17 17 18 17 15 13 13 14 14 14 14 14 13 12 11 11 11 12 14 15 15 16 16 16 16 16 16 17 18 20 21 21 20
4 3 2 6 6 6 6 5 5 2 2 2 3 5 4 2 2 3 4 1 3 4 1 4 5 2 4 4 3 0 4 5 8 12 17 20 22 24 25 26 28 29 30 29 26 24 24 23 22 21 21 20 19 17 17 18 18 16 14 13 13 15 16 16 15 13 11 11 11 11 13 15 16 16 16 16 16 16 16 16 17 18 19 20 20 20
5 3 2 5 4 5 6 3 2 1 2 1 1 4 5 4 4 5 3 3 4 6 2 6 5 4 5 6 4 5 5 5 9 15 20 23 24 25 25 26 28 29 30 29 26 25 24 23 22 22 22 21 20 18 17 19 18 16 15 13 13 16 17 17 15 12 11 12 12 12 14 16 16 16 16 16 16 15 15 16 17 18 18 19 20 20
6 3 1 2 1 1 1 1 2 2 2 1 2 2 5 5 3 2 2 2 5 5 5 6 6 6 6 6 5 7 7 7 10 14 18 20 22 23 24 26 28 29 29 29 26 24 23 22 22 22 22 22 21 19 18 19 19 17 15 14 15 17 18 16 14 13 12 13 13 13 15 16 17 17 17 16 16 15 15 16 17 18 19 19 20 20
5 2 1 2 3 5 5 5 2 4 2 1 2 2 2 3 2 3 3 1 3 2 4 4 6 5 6 6 6 5 6 7 7 9 13 16 19 20 22 25 27 28 29 28 25 23 22 21 22 22 22 22 21 21 20 20 19 17 15 15 16 17 17 15 14 13 13 14 14 14 16 17 17 17 17 17 16 15 15 17 18 19 20 20 20 20
3 1 1 3 4 4 7 7 5 4 3 1 3 4 3 3 3 3 3 1 2 1 2 4 3 4 5 4 3 1 4 6 6 7 11 14 16 18 20 23 26 27 28 27 24 22 22 22 22 22 23 22 22 21 20 19 18 16 15 16 17 17 16 15 14 14 14 15 15 15 17 18 18 18 17 17 17 16 17 18 19 21 21 22 22 21
4 2 1 5 5 2 4 6 6 5 6 4 5 5 1 1 1 1 1 2 4 3 4 5 2 5 5 2 1 1 4 6 6 7 7 9 12 15 19 23 25 27 27 26 24 22 22 22 22 21 20 19 18 18 19 19 17 16 16 15 15 15 15 14 15 15 16 16 15 15 17 17 18 19 18 18 17 17 18 19 20 21 22 23 23 24
3 4 2 3 3 3 5 4 4 5 7 4 6 5 5 2 1 2 1 2 5 6 6 4 5 6 4 4 4 2 4 6 7 6 4 4 6 9 13 16 19 21 21 21 19 18 18 17 15 13 12 11 11 11 15 17 16 15 14 13 13 13 13 14 15 15 16 15 15 16 16 17 18 19 19 18 17 18 19 20 21 21 22 24 26 27
3 5 3 2 3 2 6 5 4 4 2 5 6 5 6 4 4 4 3 5 7 4 3 4 5 3 3 6 6 7 8 7 6 5 3 2 4 7 8 7 7 9 10 9 8 9 9 9 8 8 8 7 6 5 10 14 13 12 11 10 11 13 13 13 14 15 16 15 15 16 17 17 18 19 20 19 18 19 19 20 21 22 23 26 29 31
4 5 2 2 4 2 3 6 4 1 5 7 5 3 5 5 6 7 3 4 7 5 2 3 5 5 7 7 7 10 10 7 6 6 4 3 3 5 4 1 3 4 5 6 6 6 6 5 5 5 5 4 3 4 7 10 10 9 9 11 12 13 13 13 15 15 16 16 16 16 17 18 18 20 21 20 20 20 21 22 23 24 26 30 33 34
5 4 3 2 3 2 1 4 3 5 7 5 5 4 2 3 4 4 2 5 7 7 5 4 6 5 6 5 5 8 8 8 8 7 5 4 3 2 3 6 7 7 6 6 5 5 3 2 1 1 2 3 3 5 6 7 8 8 10 11 13 14 14 14 15 15 16 17 17 17 18 18 19 21 22 22 23 24 25 26 28 29 32 35 36 37
7 4 3 2 1 2 3 2 2 4 4 3 3 3 4 4 4 6 2 6 7 9 9 5 4 5 7 6 7 9 9 7 4 5 7 7 7 7 6 6 6 6 6 6 6 5 5 4 3 2 2 3 4 4 4 5 7 8 10 12 14 14 14 15 15 15 16 17 17 17 18 19 22 25 27 27 29 30 31 32 34 35 36 37 36 35
6 2 3 3 1 2 4 1 2 3 3 5 7 6 3 2 4 6 3 4 7 11 14 9 6 9 11 10 11 12 10 6 1 5 10 11 9 8 7 6 6 7 7 7 7 6 5 4 3 4 4 4 4 4 4 6 8 9 10 12 14 14 15 16 16 16 16 17 18 20 22 25 28 30 31 32 33 34 35 35 35 34 32 32 33 33
7 4 4 5 1 2 4 2 1 2 4 6 8 6 2 1 4 6 5 5 7 13 17 13 11 13 15 16 17 14 9 4 4 9 13 13 10 9 7 8 8 7 6 7 5 4 4 4 4 5 5 5 4 4 6 7 8 10 11 12 14 15 17 17 16 17 19 20 22 25 27 28 30 31 32 32 32 32 31 30 28 27 27 29 30 31
6 5 4 3 2 3 3 2 2 4 4 4 6 5 1 4 5 7 4 6 6 11 18 17 16 18 18 19 19 13 7 6 4 7 14 15 11 9 8 7 7 6 6 6 5 4 4 4 6 6 5 4 3 4 6 8 9 11 11 12 14 16 16 17 18 20 22 24 25 26 26 27 27 28 27 27 26 25 25 25 25 27 27 27 27 27
3 3 2 2 2 3 3 1 3 4 4 4 4 3 5 5 5 5 3 7 5 9 18 18 18 21 21 22 21 14 12 11 3 3 12 16 11 9 9 7 7 6 5 6 6 6 7 7 7 6 5 4 3 4 7 8 9 10 10 12 13 14 15 17 20 22 23 23 23 23 23 23 22 22 21 22 22 23 24 25 26 26 26 25 25 26
1 1 1 2 2 2 3 1 2 4 4 3 4 6 6 4 1 3 6 4 3 9 16 17 18 22 23 24 24 17 14 11 6 4 11 15 11 8 8 8 8 8 8 8 8 9 9 9 9 8 7 5 5 6 7 8 8 9 10 12 13 14 15 18 20 21 21 20 19 18 18 18 19 20 22 23 24 25 25 24 24 24 24 25 27 29
3 2 1 2 3 3 2 2 1 2 4 8 10 6 2 4 3 4 5 2 2 9 15 17 19 21 22 23 23 18 12 9 8 8 10 11 9 7 8 9 9 9 10 10 10 11 11 11 11 10 7 7 7 8 8 8 9 11 12 13 15 16 17 18 18 17 16 15 15 15 17 18 21 23 25 25 25 24 23 22 23 24 25 28 30 33
3 3 2 3 3 4 2 1 4 3 6 15 15 5 7 11 5 0 2 5 6 11 15 17 17 19 20 21 20 17 13 10 10 10 10 10 9 8 8 10 10 10 11 12 13 13 13 13 13 11 10 9 10 9 9 10 11 13 14 16 17 17 16 14 13 12 12 13 15 17 19 22 25 26 26 24 23 22 22 23 24 26 29 32 34 36
4 4 4 2 3 4 4 6 6 4 3 17 21 10 7 11 10 5 4 5 7 12 15 15 15 17 19 19 18 16 15 13 12 11 10 10 9 9 9 10 11 11 12 13 14 15 16 16 15 13 12 12 11 11 11 12 14 16 16 16 15 12 10 9 9 11 13 16 18 20 23 24 25 25 23 21 21 21 23 26 29 31 33 34 35 35
3 3 4 2 1 3 4 6 6 5 4 13 23 18 9 7 8 8 8 7 7 11 14 13 12 14 16 17 17 16 15 14 13 12 11 10 10 11 11 12 12 13 14 14 15 16 17 18 17 15 14 13 13 12 12 13 14 14 13 11 9 7 7 9 11 14 16 18 20 23 25 25 24 22 20 20 21 23 26 29 32 33 33 33 33 32
2 4 3 1 1 1 2 5 4 3 3 6 14 20 19 14 10 9 10 9 8 9 12 11 10 11 14 17 17 16 14 13 12 12 13 12 12 13 13 12 12 11 11 11 12 13 15 17 17 16 14 13 13 12 12 11 10 9 8 6 6 7 9 11 13 15 18 20 23 25 25 23 22 21 21 22 24 26 28 29 30 30 30 30 30 30
3 5 2 1 2 3 4 8 6 5 6 5 6 11 15 17 16 13 11 10 8 8 10 11 10 10 13 15 16 15 13 11 11 12 13 14 13 11 9 8 8 7 8 8 10 11 11 11 11 10 10 10 11 10 9 7 6 6 6 6 7 8 10 12 15 17 20 23 24 24 23 22 22 22 24 25 27 28 28 27 26 26 26 26 27 29
6 5 3 2 2 2 5 7 6 5 6 6 5 7 8 11 14 14 13 12 10 9 10 10 9 9 11 13 14 14 13 11 11 12 13 13 11 8 6 6 6 6 7 7 7 8 7 5 5 6 7 7 7 5 5 5 5 5 6 7 8 10 12 14 17 20 22 23 23 23 23 23 23 25 26 27 26 25 24 24 24 25 25 25 25 26
6 4 3 4 2 3 5 5 4 2 4 5 5 7 7 8 11 14 15 13 11 10 10 9 9 9 11 13 13 13 13 12 12 12 12 11 10 8 6 5 4 4 4 4 5 5 4 3 4 4 5 4 4 3 3 4 5 6 7 8 10 11 14 16 19 22 23 23 23 23 24 24 25 25 25 25 25 25 24 24 24 25 26 27 26 25
7 6 6 7 4 4 6 7 7 6 4 4 5 7 8 8 9 12 14 13 11 11 10 10 10 11 12 13 12 12 13 13 13 13 13 11 9 6 4 2 1 2 2 3 3 3 2 2 3 3 3 3 3 3 4 5 6 7 8 9 11 13 16 19 21 22 23 23 24 24 25 25 25 25 24 24 25 27 28 29 29 29 29 29 29 29
Wind_Direction
122 114 122 164 183 197 198 162 92 126 131 119 98 107 129 112 80 89 106 113 109 92 84 104 103 93 91 78 96 121 112 109 133 136 127 123 123 125 120 113 108 100 92 80 67 58 54 54 55 55 61 64 70 72 67 64 60 58 52 47 50 50 47 46 44 43 42 42 40 39 40 42 43 42 40 41 41 40 38 36 33 31 27 20 12 5
109 133 198 200 192 185 163 119 93 101 106 103 116 126 106 97 89 87 99 92 98 100 105 116 107 92 82 59 93 129 120 135 158 147 142 136 128 129 125 121 119 110 102 96 82 75 71 74 77 76 77 69 63 62 57 55 55 52 44 40 43 41 37 38 38 36 35 35 35 35 36 36 35 33 34 36 38 38 35 34 32 31 31 28 24 19
81 149 239 226 172 101 75 97 110 110 107 99 112 126 111 121 118 76 46 27 53 100 122 128 113 89 69 64 83 117 118 141 161 149 153 149 141 143 137 131 126 118 116 114 105 105 103 99 94 84 74 62 55 55 52 54 56 52 45 44 45 43 42 43 40 36 36 36 33 33 35 36 36 37 38 37 38 35 30 29 27 26 24 23 22 21
97 232 267 192 134 106 84 99 105 101 106 117 129 136 153 170 126 96 19 24 49 90 130 131 108 68 21 70 61 78 107 121 136 146 162 160 151 151 144 136 131 128 129 126 126 125 116 105 95 82 69 59 56 58 61 62 62 60 58 58 59 58 56 53 49 44 43 41 35 32 32 32 33 34 34 31 28 25 22 20 18 19 18 16 15 15
108 308 37 118 123 121 119 121 125 120 107 147 155 142 153 150 122 120 128 86 62 69 123 114 79 24 330 105 83 45 98 112 129 145 161 165 160 155 150 146 143 141 140 137 138 133 122 116 106 93 78 63 61 65 67 68 67 66 68 72 71 66 62 57 54 51 44 39 33 28 21 16 11 7 3 358 2 10 13 13 10 8 7 6 6 4
72 41 101 101 105 120 127 146 162 140 120 160 253 97 125 125 110 113 130 108 66 67 182 102 87 289 302 189 174 324 98 122 139 146 151 166 171 167 161 157 154 151 147 142 139 139 137 131 121 107 88 69 68 70 71 70 68 70 76 78 71 60 53 49 46 40 30 25 22 18 14 12 9 8 6 2 0 0 3 6 4 0 357 354 354 352
53 63 97 101 109 111 109 134 200 135 118 166 248 103 105 112 111 117 119 84 90 176 216 89 121 219 304 234 209 192 148 147 146 144 152 167 170 169 167 164 162 158 151 149 149 151 148 139 132 119 98 78 73 72 69 67 64 67 70 65 53 44 42 42 37 29 23 22 22 19 17 15 15 18 17 11 4 358 357 357 355 355 355 354 353 352
87 79 82 79 91 95 97 133 214 120 120 194 217 113 112 114 117 118 92 82 149 177 57 40 99 125 254 237 233 170 153 163 158 154 166 172 170 172 172 169 166 161 157 159 158 158 155 147 143 124 99 80 68 64 62 61 58 54 50 41 35 36 40 41 37 32 31 30 28 23 20 17 18 21 20 12 3 359 0 0 0 1 2 3 5 6
119 107 132 113 80 82 125 183 150 104 95 276 88 98 105 106 107 100 83 79 62 97 28 322 55 105 261 268 288 137 150 188 196 184 183 177 172 175 176 172 167 164 164 167 163 162 161 152 142 113 94 68 56 60 62 61 56 48 40 32 31 39 46 45 43 41 39 36 30 24 20 18 18 19 16 7 1 4 9 11 13 14 14 16 17 17
43 133 152 123 97 133 47 31 106 93 93 124 96 81 75 71 70 66 79 85 42 60 252 273 75 102 279 276 313 84 169 207 202 194 189 181 175 176 178 173 167 167 169 171 166 163 163 149 115 137 100 62 60 67 67 63 57 50 43 37 40 51 54 49 45 42 39 33 27 24 22 20 18 15 10 4 5 12 16 15 17 18 19 20 18 16
356 92 105 76 91 143 100 52 55 93 121 117 91 74 66 43 35 47 55 83 63 9 265 246 150 111 308 275 203 186 210 191 176 179 186 183 181 180 180 175 170 173 179 178 171 169 168 154 140 188 111 67 73 75 71 68 62 57 54 50 53 57 56 51 45 40 35 29 23 22 23 23 21 15 10 9 12 18 19 17 18 18 19 17 14 10
10 37 23 59 100 108 91 66 58 85 103 96 85 93 80 17 6 27 359 37 77 280 273 256 167 114 112 273 241 230 240 196 173 174 173 181 186 183 180 179 178 183 190 185 179 180 176 166 195 202 127 89 93 88 80 75 67 63 62 60 57 55 53 49 43 37 30 23 20 21 23 25 26 23 21 21 21 23 20 18 17 15 15 12 9 7
12 353 312 76 106 109 97 81 48 36 54 78 99 100 85 37 12 21 325 353 191 250 281 249 178 131 228 249 234 237 245 223 196 179 172 177 182 183 182 184 185 190 194 190 186 187 182 178 215 206 143 125 116 105 96 86 77 68 63 61 54 47 45 41 36 30 22 17 17 19 22 25 26 26 26 25 23 21 17 14 11 7 6 5 4 4
354 325 332 86 114 142 111 107 125 13 94 128 134 114 108 101 70 335 268 316 264 260 297 264 231 301 289 262 223 242 247 225 206 180 175 178 181 183 184 186 189 194 197 193 191 194 191 196 219 203 165 156 143 135 128 109 98 79 56 50 38 32 30 26 23 19 14 12 13 16 20 23 23 23 22 20 17 14 9 6 3 359 357 357 357 357
105 321 275 155 172 188 146 135 153 139 125 151 142 112 130 151 137 190 213 176 224 256 320 301 264 181 242 273 266 264 220 190 186 177 175 177 181 183 184 187 190 195 198 196 198 204 205 211 218 198 178 176 175 174 173 163 151 146 12 15 7 10 12 8 7 6 4 6 9 13 17 18 19 18 17 13 9 5 360 355 354 351 350 351 351 351
112 224 254 280 191 173 164 148 125 106 100 184 119 91 214 199 139 132 179 168 173 138 42 269 230 213 216 276 311 25 120 141 152 163 169 173 180 182 185 189 190 195 200 200 206 211 210 216 219 201 188 193 199 199 202 201 197 251 277 305 335 349 353 350 353 355 355 1 6 10 13 13 12 11 8 5 2 358 353 347 347 347 346 347 345 344
90 265 286 355 351 186 168 168 146 134 144 144 136 207 241 176 121 111 146 31 83 115 254 264 270 303 313 287 327 49 92 113 134 152 163 170 177 182 187 190 193 199 202 206 212 213 212 216 218 207 199 206 213 213 213 219 235 269 281 291 309 330 337 334 344 350 347 354 2 5 7 7 5 3 359 357 356 354 351 347 347 346 344 343 341 340
132 216 304 53 102 337 153 151 132 118 126 122 193 217 204 125 100 102 108 14 44 143 278 318 242 291 30 216 311 39 86 96 137 151 160 170 178 185 191 195 200 205 206 211 216 215 216 219 218 214 211 214 221 223 223 233 248 262 279 282 288 305 317 320 332 342 340 346 355 358 0 2 360 357 354 353 352 351 349 346 346 345 342 340 338 337
115 106 303 285 140 330 45 108 64 351 69 129 176 172 116 125 140 85 117 127 96 177 286 315 284 252 192 212 255 210 191 199 190 166 159 174 185 190 195 200 205 208 209 213 215 214 218 220 221 221 218 219 222 223 225 232 241 255 269 274 279 288 298 303 313 329 332 335 346 352 355 357 355 351 351 350 348 347 346 345 344 342 339 338 336 333
100 109 286 285 281 357 19 72 123 293 339 54 103 90 59 133 158 154 140 148 140 154 245 311 327 270 227 210 195 200 202 183 180 185 184 192 195 196 199 202 206 209 209 212 214 214 217 220 223 223 221 222 224 225 227 229 237 250 261 268 273 279 288 293 301 316 318 323 337 346 350 353 352 351 349 347 345 345 345 344 343 343 342 342 339 333
57 93 170 288 340 36 40 239 191 187 169 88 95 221 299 58 131 149 97 97 123 141 176 207 311 268 253 207 186 198 200 181 180 187 199 203 202 203 205 207 208 209 209 212 213 214 218 220 223 225 224 225 228 231 231 232 239 247 254 263 267 272 280 285 291 302 304 314 331 340 346 352 353 353 350 345 343 345 345 345 345 346 347 348 347 342
87 96 136 301 5 63 232 246 199 180 175 160 166 194 176 139 131 122 68 306 96 121 167 155 199 270 263 201 201 203 186 184 187 186 197 206 207 209 211 211 211 210 210 212 213 215 218 219 222 225 226 227 230 232 233 234 238 242 250 258 261 266 273 276 280 288 292 307 325 334 343 350 354 356 354 347 345 347 348 349 349 350 351 353 353 352
142 101 93 64 359 203 257 266 179 164 163 144 128 131 136 128 118 124 185 224 103 95 163 123 125 270 259 231 249 228 194 190 191 191 199 208 210 212 213 212 213 213 213 213 214 216 218 220 224 227 230 232 233 234 235 235 237 243 251 254 257 263 267 267 269 275 284 302 318 328 340 350 355 360 358 353 351 353 356 357 358 358 358 358 358 358
105 84 80 7 308 301 304 316 18 86 102 104 22 44 120 224 121 141 177 172 122 142 154 89 12 267 274 309 286 215 194 190 193 198 204 208 211 213 213 214 215 215 216 216 217 218 219 224 228 230 233 234 235 237 236 235 238 245 250 252 254 259 262 260 262 269 281 299 311 320 337 349 355 1 1 0 1 3 5 6 6 5 3 1 1 1
136 79 95 73 3 345 340 344 347 355 35 91 303 333 34 91 88 115 138 83 97 181 151 118 220 254 275 340 30 152 170 183 197 204 208 210 211 211 213 216 216 216 218 219 219 219 220 225 229 232 235 236 237 239 239 238 239 244 252 254 253 255 256 254 256 266 280 295 305 315 335 346 352 357 359 359 0 2 4 6 7 7 4 1 0 360
134 125 111 114 113 173 247 279 267 280 349 7 307 345 26 73 74 134 111 67 102 188 138 138 207 261 291 355 40 100 146 180 203 208 212 214 213 214 215 216 216 217 219 221 220 221 222 225 230 234 236 239 240 241 241 240 239 244 253 254 250 249 250 250 254 266 281 292 300 313 331 341 345 350 353 353 353 354 357 360 1 2 1 357 354 354
105 85 97 135 151 181 193 217 232 188 60 337 325 347 5 24 43 93 100 95 180 154 168 220 198 217 299 317 347 248 172 189 211 210 212 216 217 218 219 217 217 219 221 223 223 223 225 228 232 236 238 241 243 245 245 241 238 243 253 255 248 244 245 247 255 268 282 291 298 311 328 338 339 341 346 348 347 347 349 350 352 355 355 352 349 350
92 54 81 131 154 201 188 212 289 79 95 243 286 343 347 2 41 83 120 217 154 122 258 258 182 161 249 263 257 242 219 207 214 212 213 217 218 219 221 220 219 220 223 225 225 225 229 233 235 238 240 241 245 249 246 240 237 241 251 255 248 245 246 249 256 270 284 291 298 310 325 334 335 335 340 342 342 342 342 342 344 346 347 345 344 347
104 75 189 145 52 282 165 305 323 89 101 119 117 331 339 2 28 92 160 194 116 125 232 235 168 177 240 253 241 234 223 217 223 221 217 217 219 220 221 221 221 222 225 227 226 227 231 237 240 244 244 243 247 252 246 237 236 241 249 250 245 247 250 251 259 274 286 292 297 309 322 329 330 331 334 336 337 336 336 337 338 338 338 338 339 342
106 91 240 133 55 27 12 342 360 97 100 22 12 322 349 23 42 94 113 122 93 131 233 191 165 214 243 233 236 240 225 228 236 228 219 217 218 220 222 223 224 225 227 230 229 229 234 241 246 250 252 251 253 253 244 235 236 242 247 245 246 251 252 254 267 279 288 293 297 308 319 323 325 327 329 332 333 332 333 333 332 331 331 332 333 336
87 113 276 83 66 4 355 4 21 64 119 161 336 342 26 47 45 75 96 154 114 63 11 91 128 264 267 231 241 250 197 207 214 214 220 226 226 226 227 228 230 230 232 235 235 233 237 243 248 256 263 266 265 257 241 233 238 244 246 246 251 254 255 262 277 286 290 293 298 308 317 319 321 323 325 328 329 328 329 329 328 328 328 328 328 328
74 107 3 65 75 314 336 10 8 29 65 42 326 305 294 104 122 155 167 193 171 138 74 71 122 254 255 196 117 119 174 186 195 202 216 232 236 236 236 238 240 240 239 240 239 237 239 245 254 265 272 277 274 257 237 232 239 244 247 251 255 257 263 275 286 290 291 294 298 307 314 317 317 318 320 323 326 327 327 325 325 325 325 325 323 320
95 119 114 87 103 264 307 358 14 38 46 357 287 234 194 182 219 245 274 226 190 151 123 144 213 235 222 151 128 152 189 187 185 184 197 238 254 256 252 250 252 250 246 245 246 244 245 250 259 268 275 281 283 261 237 233 241 248 254 262 265 266 275 285 290 290 290 293 298 306 313 315 314 314 316 319 322 323 323 323 322 322 321 320 317 315
81 97 119 125 118 249 296 346 33 46 42 255 244 198 187 193 179 192 234 228 205 174 145 200 235 242 190 163 167 187 193 183 178 178 194 249 288 296 285 274 266 257 246 238 236 231 233 240 250 261 269 279 289 263 233 233 244 255 264 271 272 273 279 285 287 287 289 293 298 305 311 312 311 312 313 315 317 317 318 319 318 317 318 318 316 313
78 80 117 104 98 159 317 25 50 257 237 244 273 260 212 195 169 177 233 247 216 207 201 239 255 224 185 179 184 186 180 172 177 187 203 232 276 300 303 86 123 153 164 164 173 183 199 224 246 258 261 263 261 237 228 235 247 257 261 266 268 270 276 281 282 285 290 294 299 306 309 311 312 310 309 311 312 311 311 312 312 314 316 317 316 314
120 113 116 70 80 155 73 72 142 242 259 271 309 313 185 138 140 156 296 290 234 202 186 218 242 207 171 171 178 175 175 177 182 188 194 203 208 186 141 125 126 130 133 141 152 157 159 173 202 233 238 237 236 233 234 241 246 248 253 258 262 266 272 277 281 287 292 295 300 306 308 310 312 309 307 308 308 307 308 310 311 313 313 313 311 309
124 134 111 74 86 150 126 158 242 308 321 291 278 248 176 156 158 158 195 277 244 200 186 195 207 176 158 153 155 159 161 153 155 191 185 170 162 154 143 132 125 125 130 134 133 128 120 118 131 173 214 219 221 224 231 241 244 248 252 255 259 265 271 277 283 289 295 298 303 308 309 310 309 307 305 305 305 304 306 307 308 308 308 307 306 305
86 136 146 141 194 107 102 67 333 3 316 256 252 246 217 215 195 150 132 296 260 210 198 188 172 165 154 142 142 145 140 120 57 220 187 170 167 165 159 156 146 135 134 134 132 139 146 153 175 197 213 219 223 222 227 240 248 252 255 258 262 267 272 277 285 293 299 303 307 309 308 306 304 303 302 302 301 302 303 304 305 306 307 306 305 304
47 51 99 105 99 103 106 118 177 211 241 247 250 260 293 220 188 121 70 317 261 207 194 183 174 173 161 154 153 143 130 134 253 228 196 180 179 180 174 170 162 151 151 153 150 154 159 175 201 213 224 232 233 228 231 243 252 255 260 265 266 268 271 279 291 300 302 304 305 306 305 304 302 301 302 302 304 305 307 309 310 311 311 309 307 307
33 27 44 75 126 144 122 123 216 233 237 241 248 259 193 158 137 83 48 288 255 197 188 182 178 179 172 162 157 150 158 187 242 242 206 189 184 189 189 185 176 170 176 184 189 187 188 207 219 224 236 242 239 234 237 246 253 258 268 274 271 270 277 288 297 300 300 300 302 302 303 304 305 306 308 311 313 315 316 316 316 315 314 312 311 312
25 20 35 107 141 139 135 173 276 261 243 244 243 199 145 130 84 76 193 246 249 189 185 185 186 185 178 170 170 181 206 210 244 263 201 191 191 195 196 199 200 203 210 214 218 220 223 231 235 237 245 250 247 239 238 248 259 269 282 287 283 284 292 296 297 300 301 301 302 303 307 311 314 317 319 320 321 321 320 318 317 315 315 315 316 318
124 47 69 109 115 128 146 173 308 289 256 209 136 129 137 135 127 205 212 244 266 194 184 188 196 194 187 187 192 206 221 225 248 238 194 191 195 194 198 212 218 225 234 234 235 238 240 246 250 251 251 250 249 246 246 257 274 287 296 295 293 295 297 295 298 303 305 306 308 312 317 321 323 324 324 323 322 321 319 317 315 314 315 317 319 321
174 158 194 194 157 125 59 46 54 293 241 160 128 110 156 178 194 219 204 187 217 199 189 193 203 202 199 202 209 217 226 231 236 219 196 195 198 197 211 225 234 246 249 247 248 249 250 256 260 260 260 253 249 253 259 269 283 291 292 290 291 293 293 295 301 307 310 314 319 322 323 324 325 325 324 323 320 317 314 313 312 313 315 318 320 320
191 164 190 237 180 132 96 175 193 240 206 172 163 176 215 204 207 306 168 182 192 194 195 200 208 211 212 214 217 220 223 224 219 207 198 199 204 212 227 237 247 255 257 259 259 256 257 263 266 267 266 258 254 260 270 278 282 283 284 286 290 292 294 299 308 314 319 323 325 324 325 326 326 325 321 317 313 310 310 311 313 314 316 318 319 319
227 188 166 182 182 169 187 214 228 290 230 191 197 212 211 209 228 244 210 204 200 195 199 206 213 217 219 220 221 220 219 216 209 203 200 203 211 221 233 241 249 257 263 266 265 261 260 263 267 268 266 261 261 266 273 276 277 279 282 286 290 293 299 311 319 320 323 326 328 330 331 331 329 324 316 309 307 308 311 314 316 317 319 321 323 323
230 173 148 149 236 246 255 251 249 286 278 209 213 223 223 216 233 230 218 221 215 205 207 214 221 224 221 217 216 216 215 212 208 208 209 213 220 228 237 247 256 263 268 269 268 266 264 262 265 268 267 266 268 270 274 278 279 280 282 285 290 300 312 321 323 324 328 332 335 337 338 335 330 321 312 306 307 310 313 316 319 322 325 328 329 330
219 161 149 108 53 148 245 258 250 264 280 230 223 231 234 235 238 230 221 226 227 220 220 223 230 233 224 214 211 212 212 210 210 214 215 218 228 237 243 252 258 262 266 268 267 266 265 264 267 268 267 266 267 270 277 281 280 280 282 288 301 313 320 324 327 331 336 340 342 342 340 333 325 318 313 311 312 314 317 320 325 329 332 334 335 336
177 163 161 177 158 165 236 258 269 284 278 258 237 243 245 243 242 235 222 219 219 221 226 232 238 235 222 213 212 213 214 214 215 218 219 223 232 237 237 240 247 256 266 269 268 271 273 274 270 261 254 257 262 270 277 279 282 288 294 303 311 317 325 330 334 339 342 344 344 341 335 328 322 319 319 318 319 322 327 331 335 337 339 340 341 341
144 165 173 146 151 302 287 272 275 296 288 272 271 281 270 250 238 228 215 209 208 211 218 222 224 220 213 212 215 218 218 219 217 218 224 226 222 215 216 232 253 271 277 276 276 278 280 277 259 241 240 251 260 269 274 281 294 302 306 314 320 326 332 336 340 344 345 344 341 336 331 327 324 323 323 324 327 331 335 338 339 338 338 339 340 340
142 177 160 111 104 271 259 238 208 211 265 273 290 298 280 247 228 216 209 207 205 203 205 204 201 204 208 213 219 222 224 223 216 214 217 212 200 200 221 246 266 278 277 275 275 271 267 264 260 257 257 254 248 255 275 293 307 311 316 321 326 333 338 341 345 346 344 341 338 333 331 329 328 328 330 332 334 336 337 338 339 338 337 337 336 335
188 197 175 159 180 226 238 228 205 198 239 277 280 279 270 251 231 217 211 210 204 198 198 203 206 209 210 211 215 223 229 226 214 203 197 189 187 203 223 227 246 280 276 265 259 257 258 264 267 269 263 245 239 262 292 305 309 312 317 324 332 339 343 346 347 345 342 340 337 334 333 333 333 335 338 338 339 339 340 340 340 340 340 339 337 335
Height
1508 1516 1523 1523 1522 1519 1517 1519 1518 1518 1522 1527 1532 1536 1538 1545 1550 1550 1551 1552 1549 1555 1563 1561 1563 1565 1564 1564 1564 1566 1570 1572 1572 1569 1568 1569 1568 1569 1567 1566 1566 1565 1565 1565 1565 1565 1565 1565 1566 1566 1567 1567 1567 1567 1567 1566 1565 1564 1563 1563 1562 1562 1562 1561 1560 1559 1559 1558 1558 1558 1557 1556 1556 1556 1555 1554 1553 1552 1551 1551 1550 1549 1548 1547 1547 1546
1512 1519 1521 1517 1516 1516 1518 1520 1520 1522 1525 1529 1533 1538 1542 1546 1551 1550 1550 1551 1549 1555 1565 1564 1565 1568 1566 1566 1566 1568 1572 1572 1570 1568 1568 1569 1568 1569 1569 1568 1567 1566 1567 1567 1567 1567 1567 1568 1568 1568 1568 1568 1568 1567 1567 1566 1565 1564 1563 1563 1563 1562 1562 1561 1560 1560 1559 1559 1558 1558 1558 1557 1557 1556 1555 1554 1554 1553 1552 1551 1550 1549 1548 1548 1547 1546
1517 1521 1518 1514 1516 1518 1521 1521 1521 1525 1528 1533 1537 1540 1543 1546 1549 1551 1551 1551 1550 1555 1566 1567 1567 1570 1568 1568 1568 1569 1571 1571 1569 1568 1569 1569 1569 1570 1570 1569 1568 1568 1568 1569 1569 1569 1569 1570 1570 1570 1569 1569 1569 1568 1567 1567 1566 1565 1564 1564 1563 1563 1562 1561 1561 1560 1560 1560 1559 1559 1559 1558 1558 1557 1556 1555 1554 1553 1552 1551 1551 1550 1549 1548 1547 1546
1519 1521 1517 1515 1516 1519 1523 1524 1524 1528 1531 1534 1537 1539 1543 1545 1547 1552 1555 1554 1552 1555 1564 1567 1568 1570 1570 1569 1569 1569 1570 1570 1570 1569 1570 1571 1570 1570 1570 1569 1568 1569 1569 1570 1570 1570 1570 1570 1571 1571 1570 1570 1570 1569 1569 1568 1567 1566 1565 1565 1565 1564 1563 1562 1562 1562 1561 1561 1561 1560 1560 1559 1559 1558 1557 1556 1555 1554 1552 1552 1551 1550 1549 1548 1547 1546
1521 1520 1518 1517 1517 1518 1524 1528 1527 1530 1535 1536 1536 1537 1540 1544 1547 1551 1555 1555 1555 1559 1561 1563 1569 1572 1571 1570 1570 1570 1570 1570 1571 1570 1570 1570 1570 1570 1571 1570 1570 1570 1570 1571 1571 1571 1571 1571 1571 1572 1572 1572 1571 1571 1570 1569 1568 1567 1566 1566 1566 1565 1564 1563 1563 1563 1563 1563 1562 1562 1561 1560 1559 1558 1557 1555 1554 1553 1552 1551 1550 1549 1549 1548 1547 1546
1522 1520 1519 1520 1521 1521 1524 1529 1527 1529 1537 1540 1537 1537 1540 1543 1546 1550 1553 1555 1560 1566 1562 1561 1570 1575 1572 1570 1571 1570 1570 1571 1572 1572 1572 1573 1572 1572 1572 1571 1571 1571 1572 1572 1571 1571 1572 1572 1572 1572 1572 1572 1572 1571 1570 1570 1569 1568 1567 1567 1566 1565 1565 1564 1564 1564 1564 1563 1562 1561 1560 1559 1558 1557 1556 1555 1554 1553 1552 1551 1550 1549 1548 1548 1547 1546
1522 1521 1521 1522 1524 1524 1526 1529 1529 1529 1537 1542 1539 1538 1541 1543 1547 1552 1552 1553 1561 1567 1563 1560 1566 1573 1573 1570 1570 1571 1570 1570 1572 1573 1574 1574 1573 1573 1572 1572 1572 1572 1572 1572 1572 1572 1572 1572 1572 1572 1572 1572 1571 1571 1571 1570 1570 1569 1568 1567 1567 1566 1565 1565 1565 1564 1564 1563 1562 1561 1560 1559 1558 1557 1556 1555 1554 1553 1552 1551 1550 1549 1548 1547 1546 1545
1522 1523 1524 1524 1525 1527 1529 1530 1531 1529 1534 1541 1539 1539 1543 1544 1549 1552 1550 1554 1561 1563 1562 1561 1563 1568 1571 1570 1569 1570 1570 1570 1571 1572 1573 1573 1573 1573 1572 1572 1572 1572 1572 1572 1572 1572 1573 1572 1572 1572 1571 1571 1571 1571 1571 1570 1570 1569 1569 1568 1567 1567 1566 1566 1565 1565 1564 1563 1563 1562 1560 1559 1558 1557 1556 1555 1555 1554 1552 1551 1550 1549 1548 1546 1546 1545
1521 1523 1524 1524 1526 1529 1530 1530 1531 1530 1536 1542 1541 1541 1544 1547 1551 1551 1551 1557 1560 1561 1564 1563 1563 1567 1569 1570 1570 1569 1570 1571 1569 1570 1571 1571 1571 1572 1571 1571 1572 1572 1572 1572 1572 1572 1573 1572 1572 1572 1571 1571 1572 1572 1572 1571 1570 1570 1569 1568 1568 1567 1567 1566 1566 1565 1565 1564 1563 1562 1561 1560 1558 1557 1557 1556 1555 1553 1552 1551 1549 1548 1547 1547 1546 1545
1520 1522 1522 1522 1526 1529 1530 1531 1530 1531 1537 1542 1542 1543 1546 1550 1552 1553 1556 1558 1560 1564 1565 1563 1563 1567 1567 1568 1570 1570 1569 1568 1566 1566 1568 1569 1570 1570 1570 1571 1571 1572 1572 1572 1573 1573 1573 1572 1572 1572 1572 1572 1572 1572 1572 1572 1571 1570 1570 1569 1569 1568 1568 1567 1567 1566 1566 1565 1564 1563 1561 1560 1558 1557 1557 1556 1554 1553 1552 1551 1549 1548 1548 1547 1546 1545
1521 1521 1521 1523 1526 1528 1529 1532 1533 1533 1536 1539 1542 1546 1549 1551 1552 1555 1559 1558 1563 1569 1565 1562 1564 1566 1566 1564 1565 1566 1562 1560 1562 1564 1566 1567 1568 1569 1569 1570 1570 1571 1571 1572 1572 1573 1572 1572 1572 1572 1573 1573 1573 1573 1573 1573 1572 1572 1571 1571 1570 1569 1569 1568 1567 1567 1566 1565 1564 1563 1561 1560 1559 1558 1557 1555 1554 1553 1552 1551 1549 1549 1548 1547 1546 1545
1522 1523 1525 1526 1527 1527 1528 1534 1538 1537 1537 1539 1543 1548 1554 1557 1557 1559 1561 1561 1569 1571 1564 1565 1566 1565 1566 1561 1557 1559 1556 1555 1557 1559 1562 1564 1565 1567 1568 1569 1570 1570 1571 1571 1572 1572 1572 1572 1572 1573 1573 1574 1574 1574 1574 1573 1573 1573 1572 1571 1571 1570 1569 1568 1568 1567 1566 1566 1564 1563 1562 1560 1559 1558 1557 1556 1554 1553 1552 1551 1550 1549 1548 1547 1546 1545
1527 1527 1528 1529 1529 1528 1529 1538 1544 1542 1540 1543 1547 1550 1558 1568 1570 1569 1571 1571 1573 1569 1564 1567 1566 1564 1564 1557 1554 1556 1553 1554 1554 1555 1558 1561 1563 1565 1566 1568 1569 1570 1571 1571 1571 1571 1572 1573 1573 1573 1574 1575 1575 1574 1574 1574 1573 1573 1572 1571 1571 1570 1569 1569 1568 1567 1567 1566 1565 1563 1562 1561 1560 1559 1558 1556 1555 1554 1552 1551 1550 1549 1548 1547 1546 1545
1535 1534 1529 1529 1532 1529 1528 1537 1545 1544 1544 1546 1548 1550 1558 1571 1578 1579 1581 1581 1575 1567 1565 1567 1566 1565 1561 1554 1554 1555 1552 1552 1553 1555 1557 1559 1561 1564 1565 1567 1568 1569 1570 1570 1571 1571 1572 1573 1573 1574 1575 1575 1575 1574 1574 1574 1573 1573 1572 1571 1571 1570 1569 1569 1568 1568 1567 1566 1565 1564 1563 1562 1561 1559 1558 1557 1555 1554 1553 1552 1551 1549 1548 1547 1546 1545
1541 1541 1533 1530 1532 1529 1528 1532 1535 1538 1544 1547 1547 1550 1554 1558 1564 1571 1574 1573 1571 1570 1569 1567 1566 1566 1562 1554 1552 1552 1551 1553 1553 1555 1557 1559 1562 1563 1564 1567 1567 1569 1570 1570 1571 1572 1572 1573 1573 1574 1574 1574 1574 1574 1573 1573 1573 1572 1572 1571 1570 1570 1570 1569 1569 1568 1567 1566 1565 1564 1563 1562 1561 1560 1558 1557 1556 1555 1554 1552 1551 1550 1549 1547 1546 1545
1542 1540 1531 1528 1529 1527 1529 1530 1530 1536 1545 1549 1547 1550 1552 1547 1549 1564 1572 1569 1568 1570 1570 1569 1567 1565 1559 1552 1551 1551 1551 1553 1554 1555 1557 1559 1561 1563 1564 1566 1566 1568 1569 1569 1571 1571 1572 1573 1573 1573 1573 1573 1573 1573 1573 1572 1572 1572 1571 1571 1570 1570 1570 1569 1569 1568 1567 1567 1565 1564 1563 1562 1561 1560 1559 1558 1556 1555 1554 1553 1551 1550 1549 1548 1546 1545
1541 1538 1529 1528 1529 1527 1529 1530 1530 1535 1542 1549 1549 1548 1547 1543 1544 1559 1572 1572 1570 1568 1570 1572 1567 1562 1559 1553 1551 1551 1551 1553 1555 1555 1556 1558 1560 1561 1562 1563 1565 1566 1567 1568 1569 1571 1571 1572 1572 1572 1572 1572 1572 1572 1572 1571 1571 1571 1571 1571 1571 1570 1570 1569 1569 1568 1567 1567 1565 1564 1563 1562 1561 1560 1559 1558 1556 1555 1554 1553 1552 1550 1549 1548 1546 1545
1535 1537 1531 1529 1529 1529 1529 1530 1531 1532 1535 1544 1548 1543 1542 1544 1544 1550 1562 1571 1573 1571 1571 1573 1569 1565 1564 1559 1553 1552 1552 1553 1554 1555 1556 1558 1559 1560 1561 1562 1563 1564 1565 1567 1569 1570 1570 1570 1571 1571 1571 1571 1571 1571 1571 1571 1571 1571 1571 1571 1570 1570 1570 1569 1569 1568 1567 1566 1565 1564 1563 1562 1561 1560 1559 1558 1556 1555 1554 1553 1552 1550 1549 1547 1545 1544
1531 1537 1535 1530 1530 1531 1529 1531 1535 1535 1533 1536 1539 1537 1539 1545 1547 1549 1557 1564 1570 1575 1574 1573 1573 1569 1563 1558 1554 1552 1552 1552 1554 1555 1556 1557 1558 1558 1559 1560 1561 1562 1564 1566 1567 1568 1569 1569 1570 1570 1570 1570 1570 1570 1570 1570 1570 1570 1570 1570 1570 1570 1569 1569 1569 1568 1567 1566 1565 1564 1563 1562 1561 1560 1559 1558 1556 1555 1554 1553 1551 1550 1548 1546 1545 1543
1529 1536 1539 1533 1530 1531 1530 1533 1538 1537 1535 1534 1535 1537 1539 1543 1545 1549 1554 1555 1559 1572 1576 1572 1571 1565 1555 1552 1550 1548 1550 1551 1552 1554 1554 1554 1555 1556 1557 1558 1559 1561 1563 1564 1566 1566 1567 1568 1568 1568 1569 1570 1569 1569 1569 1569 1570 1570 1570 1570 1569 1569 1569 1569 1569 1568 1567 1566 1565 1564 1564 1563 1562 1560 1559 1558 1556 1555 1554 1552 1551 1549 1547 1545 1543 1542
1528 1533 1539 1535 1532 1534 1535 1536 1537 1537 1536 1536 1537 1539 1540 1544 1547 1548 1554 1557 1555 1563 1572 1571 1565 1556 1547 1547 1545 1544 1547 1549 1549 1551 1552 1553 1553 1554 1555 1556 1557 1559 1561 1563 1564 1565 1566 1567 1567 1567 1568 1569 1568 1569 1569 1569 1569 1569 1570 1569 1569 1569 1569 1569 1569 1568 1567 1566 1565 1564 1564 1563 1562 1560 1559 1558 1556 1555 1553 1552 1550 1548 1547 1545 1543 1541
1526 1530 1536 1538 1537 1538 1537 1535 1536 1536 1536 1536 1536 1537 1539 1542 1545 1547 1555 1562 1559 1559 1566 1568 1560 1550 1544 1544 1543 1543 1544 1546 1547 1549 1550 1551 1552 1553 1554 1555 1557 1558 1560 1562 1563 1564 1565 1565 1566 1567 1567 1567 1567 1567 1568 1568 1569 1569 1569 1569 1568 1568 1569 1568 1568 1567 1566 1566 1565 1564 1564 1563 1562 1560 1559 1557 1556 1555 1553 1551 1550 1548 1546 1544 1542 1540
1524 1528 1535 1541 1540 1539 1536 1535 1535 1536 1536 1536 1537 1539 1541 1541 1540 1542 1548 1555 1560 1564 1566 1565 1560 1549 1543 1544 1543 1542 1543 1544 1546 1547 1548 1550 1550 1552 1553 1554 1557 1558 1559 1561 1562 1563 1564 1564 1565 1566 1566 1566 1566 1567 1567 1567 1568 1568 1568 1568 1568 1568 1568 1568 1568 1567 1566 1566 1565 1564 1564 1562 1561 1560 1558 1557 1555 1554 1552 1551 1549 1548 1546 1544 1542 1540
1524 1532 1538 1543 1542 1537 1533 1532 1533 1535 1536 1536 1538 1541 1543 1541 1539 1540 1543 1546 1555 1563 1563 1561 1559 1549 1542 1543 1542 1541 1542 1543 1545 1546 1547 1549 1549 1550 1552 1553 1555 1557 1558 1560 1561 1563 1564 1563 1564 1565 1564 1565 1565 1566 1566 1566 1567 1567 1567 1568 1568 1568 1568 1568 1567 1566 1566 1566 1565 1564 1563 1562 1561 1559 1558 1556 1555 1553 1552 1551 1549 1547 1545 1544 1542 1540
1525 1535 1540 1546 1551 1548 1543 1540 1537 1535 1536 1537 1540 1543 1544 1544 1542 1541 1544 1545 1550 1560 1560 1556 1556 1549 1542 1543 1542 1541 1543 1544 1545 1546 1547 1548 1549 1549 1551 1552 1554 1556 1557 1559 1561 1562 1563 1562 1563 1563 1563 1564 1564 1565 1565 1565 1566 1566 1567 1567 1567 1567 1567 1567 1566 1566 1565 1565 1564 1564 1563 1562 1560 1559 1557 1556 1555 1553 1552 1550 1549 1547 1545 1544 1542 1541
1527 1538 1539 1543 1553 1556 1553 1550 1544 1539 1539 1540 1541 1542 1543 1545 1543 1540 1543 1544 1547 1559 1561 1553 1551 1547 1542 1544 1544 1543 1545 1544 1545 1547 1547 1548 1548 1549 1550 1551 1553 1555 1556 1557 1559 1560 1561 1561 1561 1561 1562 1563 1563 1564 1564 1564 1565 1565 1566 1566 1566 1566 1566 1566 1566 1565 1565 1565 1564 1563 1562 1561 1560 1558 1557 1556 1554 1553 1552 1550 1548 1547 1545 1544 1542 1541
1531 1540 1540 1539 1542 1545 1544 1543 1544 1542 1540 1540 1541 1541 1542 1546 1546 1541 1542 1543 1545 1556 1558 1550 1548 1547 1543 1544 1545 1544 1546 1545 1545 1546 1546 1547 1548 1548 1549 1550 1552 1553 1554 1556 1558 1559 1560 1560 1560 1561 1561 1562 1562 1563 1563 1563 1564 1565 1565 1565 1565 1565 1565 1565 1565 1565 1564 1564 1563 1563 1562 1561 1559 1558 1556 1555 1554 1553 1551 1550 1548 1546 1545 1543 1542 1540
1529 1537 1543 1541 1538 1541 1542 1542 1544 1542 1539 1540 1542 1541 1542 1545 1545 1540 1540 1543 1546 1552 1552 1547 1548 1548 1543 1542 1543 1543 1544 1545 1545 1545 1544 1545 1546 1547 1549 1550 1551 1552 1553 1555 1557 1557 1558 1558 1559 1560 1560 1561 1562 1562 1562 1563 1563 1564 1564 1564 1564 1564 1564 1564 1564 1564 1564 1563 1562 1562 1561 1560 1559 1557 1556 1555 1554 1552 1551 1549 1548 1546 1544 1543 1541 1539
1528 1536 1543 1542 1540 1543 1545 1545 1544 1541 1540 1542 1543 1542 1542 1543 1542 1539 1541 1548 1547 1545 1546 1546 1547 1545 1541 1541 1542 1542 1542 1543 1543 1543 1544 1545 1545 1546 1548 1549 1550 1551 1552 1553 1555 1556 1557 1557 1557 1558 1559 1560 1560 1561 1561 1562 1562 1563 1563 1563 1563 1563 1563 1563 1563 1563 1563 1562 1562 1561 1560 1559 1558 1557 1556 1554 1553 1552 1550 1549 1547 1545 1543 1542 1540 1538
1529 1536 1543 1541 1539 1541 1544 1545 1543 1540 1540 1541 1542 1544 1544 1544 1544 1542 1545 1552 1550 1546 1550 1551 1547 1543 1541 1541 1541 1541 1541 1542 1542 1543 1544 1544 1545 1546 1547 1548 1548 1550 1550 1551 1553 1554 1555 1556 1557 1557 1558 1559 1559 1559 1560 1560 1561 1562 1562 1562 1562 1562 1563 1563 1563 1562 1562 1561 1561 1560 1559 1558 1557 1556 1555 1553 1552 1550 1549 1547 1546 1544 1542 1540 1538 1537
1527 1537 1544 1540 1539 1543 1544 1544 1544 1542 1541 1540 1541 1545 1545 1544 1545 1544 1546 1550 1548 1547 1552 1552 1547 1543 1542 1541 1541 1540 1541 1541 1542 1543 1543 1544 1545 1545 1546 1547 1547 1548 1549 1550 1552 1553 1554 1555 1556 1556 1556 1557 1557 1557 1558 1559 1560 1561 1561 1561 1562 1562 1562 1562 1562 1562 1561 1560 1560 1559 1558 1557 1556 1555 1554 1552 1551 1549 1547 1546 1544 1542 1541 1539 1537 1535
1527 1538 1543 1539 1541 1547 1546 1546 1546 1543 1543 1543 1542 1543 1543 1543 1544 1543 1544 1547 1545 1545 1550 1551 1547 1543 1541 1541 1541 1541 1541 1541 1542 1542 1543 1544 1544 1545 1545 1545 1546 1546 1548 1549 1551 1552 1554 1554 1555 1556 1556 1555 1555 1555 1556 1558 1559 1560 1560 1561 1561 1561 1561 1561 1561 1561 1560 1560 1559 1558 1557 1556 1555 1554 1552 1551 1549 1548 1546 1544 1542 1541 1539 1537 1535 1533
1531 1535 1538 1541 1544 1547 1550 1550 1546 1543 1548 1549 1543 1540 1541 1543 1544 1544 1544 1545 1545 1544 1546 1546 1543 1540 1541 1542 1542 1542 1542 1542 1542 1543 1544 1544 1544 1544 1544 1544 1545 1546 1547 1549 1550 1552 1553 1554 1555 1555 1555 1554 1554 1554 1556 1557 1558 1559 1560 1560 1560 1561 1561 1561 1560 1560 1560 1559 1558 1557 1556 1555 1554 1552 1551 1550 1548 1546 1544 1543 1541 1539 1537 1535 1533 1531
1534 1532 1539 1545 1543 1546 1552 1550 1546 1552 1556 1550 1542 1541 1541 1540 1541 1541 1540 1541 1543 1543 1542 1541 1541 1540 1542 1541 1541 1541 1542 1542 1543 1543 1544 1544 1544 1544 1544 1544 1545 1546 1547 1549 1550 1552 1553 1554 1555 1555 1554 1554 1554 1554 1556 1557 1558 1559 1560 1560 1560 1560 1560 1560 1560 1559 1559 1558 1557 1556 1555 1554 1552 1551 1550 1548 1546 1545 1543 1541 1539 1537 1535 1533 1531 1529
1533 1534 1543 1548 1545 1548 1552 1549 1553 1560 1554 1542 1540 1543 1541 1540 1540 1540 1539 1540 1541 1541 1541 1540 1540 1540 1540 1541 1540 1541 1542 1542 1544 1544 1544 1545 1545 1545 1545 1545 1546 1547 1548 1549 1551 1552 1553 1554 1554 1555 1555 1555 1555 1555 1556 1557 1558 1559 1559 1559 1559 1559 1559 1559 1559 1558 1557 1557 1556 1555 1553 1552 1551 1549 1548 1546 1544 1543 1541 1539 1537 1535 1533 1531 1529 1527
1531 1535 1542 1549 1552 1551 1550 1553 1557 1555 1545 1539 1541 1542 1540 1541 1542 1540 1540 1540 1538 1539 1540 1538 1538 1539 1541 1542 1541 1542 1543 1543 1544 1544 1545 1545 1546 1546 1546 1547 1547 1548 1549 1550 1552 1553 1553 1554 1554 1555 1555 1555 1556 1556 1557 1557 1558 1558 1559 1559 1559 1559 1558 1558 1558 1557 1556 1555 1554 1553 1552 1551 1549 1547 1546 1544 1542 1540 1538 1537 1535 1533 1531 1528 1526 1524
1530 1533 1536 1545 1554 1554 1552 1554 1552 1547 1544 1541 1538 1537 1536 1536 1537 1538 1539 1538 1535 1537 1538 1537 1538 1540 1541 1541 1542 1542 1544 1544 1545 1546 1545 1546 1547 1547 1547 1548 1549 1550 1550 1551 1552 1553 1554 1554 1555 1555 1555 1555 1556 1556 1557 1557 1558 1558 1558 1558 1558 1558 1557 1557 1556 1556 1555 1554 1552 1551 1550 1549 1547 1545 1544 1542 1540 1538 1536 1534 1532 1530 1528 1525 1522 1520
1529 1531 1530 1538 1552 1556 1554 1553 1552 1551 1550 1540 1533 1533 1533 1532 1533 1534 1537 1537 1534 1533 1534 1535 1538 1540 1540 1541 1543 1543 1544 1546 1547 1546 1545 1546 1547 1547 1548 1549 1550 1550 1551 1551 1552 1553 1553 1554 1554 1555 1555 1555 1555 1556 1556 1557 1557 1557 1557 1557 1557 1557 1556 1556 1555 1554 1553 1552 1551 1550 1549 1547 1545 1543 1541 1540 1538 1535 1533 1532 1529 1527 1525 1522 1518 1516
1530 1533 1533 1538 1550 1554 1549 1549 1554 1553 1545 1535 1532 1532 1531 1533 1533 1533 1540 1541 1532 1529 1532 1534 1536 1539 1539 1540 1542 1543 1545 1548 1548 1545 1545 1546 1547 1547 1548 1549 1549 1550 1551 1551 1552 1552 1553 1553 1554 1554 1554 1554 1555 1555 1556 1556 1556 1556 1556 1556 1556 1556 1555 1554 1553 1552 1551 1550 1549 1548 1547 1545 1543 1541 1539 1537 1535 1533 1531 1529 1526 1524 1522 1519 1516 1512
1531 1534 1536 1537 1545 1552 1549 1547 1551 1547 1537 1533 1533 1531 1532 1533 1531 1538 1550 1545 1530 1527 1531 1532 1534 1537 1538 1539 1542 1543 1544 1546 1545 1543 1544 1545 1547 1547 1548 1549 1549 1550 1551 1551 1551 1552 1552 1553 1553 1553 1553 1554 1554 1555 1555 1555 1555 1555 1555 1555 1554 1554 1554 1553 1552 1551 1550 1549 1548 1546 1545 1543 1541 1538 1536 1534 1532 1530 1529 1526 1524 1521 1518 1516 1513 1510
1536 1538 1543 1542 1544 1549 1549 1546 1547 1542 1533 1531 1532 1531 1532 1532 1535 1544 1549 1537 1527 1528 1530 1530 1533 1536 1536 1539 1541 1541 1541 1542 1542 1542 1543 1545 1546 1547 1547 1548 1549 1550 1550 1551 1551 1552 1552 1552 1552 1552 1552 1553 1553 1554 1554 1554 1554 1554 1554 1554 1553 1553 1552 1552 1551 1550 1548 1547 1545 1544 1542 1540 1538 1536 1534 1533 1530 1528 1526 1524 1521 1518 1516 1513 1510 1508
1538 1541 1547 1547 1547 1550 1549 1546 1547 1542 1532 1529 1531 1531 1532 1534 1539 1541 1535 1527 1526 1528 1529 1530 1533 1534 1535 1537 1538 1538 1539 1540 1542 1542 1543 1544 1545 1546 1547 1548 1549 1549 1550 1550 1551 1551 1551 1551 1551 1551 1552 1552 1553 1553 1553 1553 1553 1553 1553 1553 1552 1552 1551 1550 1549 1548 1546 1545 1544 1542 1540 1539 1537 1535 1533 1531 1528 1526 1524 1521 1519 1516 1513 1511 1508 1505
1533 1536 1542 1544 1547 1551 1551 1550 1549 1541 1531 1527 1530 1532 1532 1533 1533 1530 1526 1526 1528 1528 1528 1531 1532 1533 1535 1536 1536 1538 1539 1541 1542 1542 1543 1544 1545 1546 1547 1548 1548 1549 1549 1549 1550 1550 1550 1550 1550 1551 1551 1552 1552 1552 1552 1552 1552 1552 1552 1551 1551 1550 1549 1548 1547 1546 1545 1543 1542 1540 1539 1537 1535 1533 1530 1528 1526 1523 1521 1519 1516 1514 1512 1509 1506 1503
1531 1532 1536 1539 1541 1544 1545 1544 1539 1532 1527 1526 1527 1528 1528 1527 1526 1526 1526 1527 1527 1528 1529 1531 1531 1533 1534 1535 1536 1538 1539 1540 1541 1542 1543 1544 1545 1546 1547 1547 1548 1548 1548 1549 1549 1549 1549 1550 1550 1550 1551 1551 1551 1551 1551 1551 1551 1551 1550 1549 1549 1548 1547 1546 1545 1544 1543 1542 1540 1539 1537 1535 1533 1531 1528 1526 1523 1521 1519 1517 1514 1512 1510 1507 1503 1500
1529 1528 1529 1531 1534 1534 1534 1532 1528 1525 1525 1526 1524 1524 1525 1525 1525 1526 1527 1526 1527 1528 1529 1530 1531 1533 1533 1534 1536 1538 1538 1540 1541 1541 1543 1544 1544 1545 1546 1546 1547 1547 1547 1548 1548 1548 1548 1548 1549 1549 1550 1550 1550 1550 1550 1550 1549 1549 1548 1548 1547 1546 1546 1545 1544 1543 1542 1540 1538 1536 1535 1533 1531 1529 1526 1524 1522 1519 1517 1515 1512 1509 1507 1504 1500 1496
1527 1527 1526 1527 1529 1530 1527 1525 1525 1525 1524 1524 1523 1524 1524 1525 1525 1526 1526 1526 1527 1527 1528 1530 1531 1531 1532 1534 1536 1537 1538 1539 1540 1541 1542 1543 1544 1545 1545 1546 1546 1546 1546 1547 1547 1547 1547 1547 1547 1548 1548 1548 1548 1548 1548 1548 1547 1547 1547 1546 1546 1545 1545 1544 1543 1542 1540 1538 1536 1535 1533 1530 1528 1526 1524 1522 1520 1518 1515 1513 1509 1506 1503 1500 1497 1494
1526 1526 1526 1527 1529 1529 1527 1524 1524 1524 1523 1523 1523 1523 1523 1524 1524 1525 1526 1526 1527 1527 1528 1529 1530 1531 1532 1533 1534 1536 1537 1538 1539 1540 1541 1542 1543 1544 1544 1545 1545 1545 1545 1545 1545 1545 1545 1545 1546 1546 1546 1547 1547 1547 1546 1546 1546 1546 1545 1545 1545 1544 1543 1543 1541 1540 1538 1537 1535 1533 1530 1528 1526 1524 1522 1520 1518 1515 1513 1510 1507 1504 1500 1497 1494 1491
1524 1524 1526 1528 1528 1528 1525 1523 1523 1523 1522 1522 1522 1522 1522 1522 1523 1524 1525 1525 1526 1527 1528 1529 1530 1530 1531 1532 1534 1535 1536 1538 1539 1540 1540 1542 1543 1543 1544 1544 1544 1545 1545 1544 1544 1544 1544 1544 1544 1544 1545 1545 1545 1545 1545 1545 1545 1545 1545 1544 1544 1543 1542 1541 1540 1538 1537 1535 1533 1530 1528 1526 1524 1522 1520 1517 1515 1512 1510 1507 1504 1502 1499 1496 1492 1488
1522 1523 1525 1527 1527 1526 1524 1522 1522 1522 1522 1521 1521 1521 1521 1521 1521 1523 1524 1525 1526 1526 1527 1528 1529 1529 1530 1532 1533 1535 1536 1537 1538 1539 1540 1541 1542 1543 1544 1544 1544 1544 1544 1544 1544 1543 1543 1543 1544 1544 1544 1544 1544 1544 1544 1544 1544 1544 1544 1543 1543 1542 1541 1540 1538 1537 1535 1533 1531 1528 1526 1524 1522 1519 1517 1514 1512 1510 1508 1506 1503 1500 1498 1496 1493 1489
1521 1522 1524 1526 1527 1526 1523 1520 1520 1522 1522 1520 1520 1520 1520 1520 1521 1522 1522 1524 1525 1525 1526 1527 1528 1529 1530 1532 1533 1534 1535 1536 1537 1538 1539 1540 1542 1543 1543 1543 1544 1544 1543 1543 1543 1543 1543 1543 1543 1543 1544 1544 1544 1544 1544 1544 1544 1543 1543 1542 1541 1540 1539 1538 1537 1535 1533 1531 1529 1526 1524 1522 1519 1517 1514 1512 1509 1507 1506 1504 1502 1499 1496 1493 1491 1489
1517 1518 1520 1522 1522 1522 1519 1517 1518 1520 1520 1520 1520 1520 1519 1519 1520 1520 1522 1523 1524 1525 1526 1527 1528 1529 1530 1531 1532 1534 1534 1535 1536 1537 1538 1540 1542 1542 1542 1543 1543 1543 1543 1543 1543 1543 1543 1543 1543 1543 1543 1543 1543 1544 1544 1543 1543 1542 1542 1541 1540 1539 1538 1537 1535 1533 1531 1529 1527 1524 1522 1519 1517 1514 1512 1510 1507 1504 1501 1499 1497 1496 1493 1491 1487 1485